Location: Del Amo
(33.8464°N, 118.2104°W)
Time: 18:57:24
(UTC+00:00)

STRAND 1 - Pass Details

Date: 15 October 2024
Orbit: 764 x 776 km, 98.4° (Epoch: 07 November)

Event Time Altitude Azimuth Distance (km) Brightness Sun altitude
Rises 03:06:29 0° 357° (N) 3,257 ? -23.0°
Reaches altitude 10° 03:09:12 10° 343° (NNW) 2,324 ? -23.6°
Maximum altitude 03:13:12 24° 292° (WNW) 1,576 ? -24.4°
Drops below altitude 10° 03:17:10 10° 240° (WSW) 2,308 ? -25.2°
Sets 03:19:52 0° 226° (SW) 3,228 ? -25.8°
